sat.trackr.live / text

‹ back to catalog

STARLINK-36976

NORAD 68066 · 2026-041AC

PAYLOAD ACTIVE UNKNOWN

§ Identity

Operator
Country
US
Launch date
2026-03-02
Launch site
AFETR
Launch vehicle
Mass (kg)
RCS (m²)

Purposes: comms

External: N2YO · Heavens-Above · Gunter

§ Orbital elements

Epoch: 2026-05-25T04:00:03.998880Z

Period
93.85 min
Inclination
53.1596°
Eccentricity
0.0000722
Mean motion
15.34358986 rev/d
Perigee alt
462.3 km
Apogee alt
463.3 km
Semi-major
6,841.0 km
B*
1.7739e-3
RAAN
52.6647°
Arg perigee
85.4552°
Mean anomaly
330.4149°
Rev number
552

§ Raw data

STARLINK-369761 68066U 26041AC  26145.16671295  .00059960  00000+0  17739-2 0  99912 68066  53.1596  52.6647 0000722  85.4552 330.4149 15.34358986  5525

JSON: /api/v1/satellites/68066 · /tle

For live sub-satellite position, see the globe view (requires WebGL).

§ Visibility from observer

Set your observer location to see the next 7 days of passes ≥ 10°. The values pass through the URL so the page stays shareable.

No JS? Fill the form by hand. The geolocation button needs JavaScript.